TITAN 3C TRANSTAGE DEB, 1671

Orbit data source: Space-Track

TITAN 3C TRANSTAGE DEB, 1671 is space debris in LEO originally from a launch on Fri, 15 Oct 1965 UTC launched from the Air Force Eastern Test Range (AFETR). Debris objects in space refer to the collection of defunct objects orbiting the Earth. Examples of debris include non-operational satellites, rocket bodies, and fragments generated from explosions, collisions, or faulty payload assembly.

Loading next visibility...
Identifier
1671, 1965-082AJ
Orbit
LEO
Country
Flag of USUS
Related business
Manufacturer
Unknown
Mission
Spacecraft
Bus & Motor
Unknown
Mass
Unknown
Launch date (UTC)
1965-10-15 (60 years ago)
Launch vehicle
Unknown
Launch site
Air Force Eastern Test Range (AFETR)
Object type
Payload
Rocket body
Debris
Shape & HBR
Unknown shape, 0.3 m
Radar Cross Section
Medium (>0.1 m² and <1 m²)

Expand to show TLE details & history
Last TLE update: 15 hours ago

TLE from 15 hours ago
0 TITAN 3C TRANSTAGE DEB
1  1671U 65082AJ  25308.63972801  .00000642  00000-0  13990-3 0  9997
2  1671  32.1614 283.2035 0052111  33.1612 327.2281 14.53778132153693
Epoch: 2025-11-04T15:21Z
TLE epoch observation values (Epoch: 2025-11-04T15:21:12.500Z)
Latitude
-0.00005°
Longitude
8.77748°
Altitude
680.986 km
Speed
7.535 km/s
True Right ascension
18h 52m 48s
True Declination
0° 00' 00"
Sunlit
Object was in daylight at epoch
Visualization orbit readout
Latitude
Unknown
Longitude
Unknown
Altitude
Unknown
Speed
Unknown
Apparent Right ascension
Unknown
Apparent Declination
Unknown
Sunlit
N/A
Visualization observer readout
Local Sidereal Time
02:05:08
Azimuth
Unknown
Elevation
Unknown
Doppler factor
Unknown
Orbital elements
Apogee altitude
753.885 km
Perigee altitude
679.939 km
Semi-major axis
7,095.049 km
Eccentricity
0.00521
Inclination
32.1614°
RAAN
283.2035°
Arg. of periapsis
33.1612°
True anomaly
326.90309°
Mean anomaly
327.2281°
Eccentric anomaly
327.06577°
Mean motion
3.6317 °/min
Orbital period
99.13 mins
BSTAR
0.0001399

Documentation

Showing up to 5 results
|